TimeEST,TemperatureF,Dew PointF,Humidity,Sea Level PressureIn,VisibilityMPH,Wind Direction,Wind SpeedMPH,Gust SpeedMPH,PrecipitationIn,Events,Conditions,WindDirDegrees,DateUTC
12:15 AM,32.0,28.8,88,30.06,7.0,West,3.5,-,N/A,,Overcast,270,2013-01-01 05:15:00
12:35 AM,32.0,28.8,88,30.05,5.0,West,4.6,-,N/A,,Overcast,280,2013-01-01 05:35:00
12:55 AM,32.0,28.8,88,30.05,5.0,West,5.8,-,N/A,,Overcast,280,2013-01-01 05:55:00
1:15 AM,32.0,28.8,88,30.04,4.0,WNW,3.5,-,N/A,,Overcast,290,2013-01-01 06:15:00
1:35 AM,30.2,27.3,89,30.05,1.5,NW,9.2,-,N/A,,Overcast,320,2013-01-01 06:35:00
1:55 AM,29.5,26.6,89,30.04,1.0,NNW,10.4,-,N/A,,Overcast,340,2013-01-01 06:55:00
2:15 AM,28.9,26.2,90,30.05,2.0,NNW,5.8,9.2,N/A,,Overcast,340,2013-01-01 07:15:00
2:35 AM,28.6,25.9,90,30.05,3.0,North,3.5,-,N/A,,Overcast,350,2013-01-01 07:35:00
2:55 AM,28.8,25.9,89,30.06,4.0,NNW,3.5,-,N/A,,Overcast,330,2013-01-01 07:55:00
3:15 AM,28.6,25.7,89,30.06,5.0,NNW,5.8,-,N/A,,Overcast,330,2013-01-01 08:15:00
3:35 AM,28.4,25.0,87,30.06,5.0,NW,5.8,-,N/A,,Overcast,320,2013-01-01 08:35:00
3:55 AM,28.2,24.4,86,30.06,5.0,NNW,9.2,-,N/A,,Overcast,340,2013-01-01 08:55:00
4:15 AM,28.0,24.4,86,30.07,5.0,NNW,5.8,-,N/A,,Overcast,330,2013-01-01 09:15:00
4:35 AM,27.5,23.9,86,30.06,7.0,NNW,8.1,-,N/A,,Overcast,330,2013-01-01 09:35:00
4:55 AM,27.3,23.7,86,30.06,7.0,NNW,4.6,-,N/A,,Overcast,330,2013-01-01 09:55:00
5:15 AM,27.0,23.0,85,30.07,7.0,NW,4.6,-,N/A,,Overcast,320,2013-01-01 10:15:00
5:35 AM,26.6,22.8,86,30.06,7.0,NNW,4.6,-,N/A,,Overcast,330,2013-01-01 10:35:00
5:55 AM,26.6,22.5,84,30.06,7.0,NW,3.5,-,N/A,,Overcast,320,2013-01-01 10:55:00
6:15 AM,26.6,22.3,84,30.08,7.0,NW,3.5,-,N/A,,Overcast,310,2013-01-01 11:15:00
6:35 AM,26.6,22.5,84,30.08,7.0,Calm,Calm,-,N/A,,Overcast,0,2013-01-01 11:35:00
6:55 AM,26.4,22.1,84,30.09,7.0,NW,3.5,-,N/A,,Overcast,320,2013-01-01 11:55:00
7:15 AM,26.2,22.1,84,30.09,7.0,NW,6.9,-,N/A,,Overcast,320,2013-01-01 12:15:00
7:35 AM,25.2,21.0,84,30.10,7.0,NW,6.9,-,N/A,,Scattered Clouds,320,2013-01-01 12:35:00
7:55 AM,24.8,20.8,85,30.11,7.0,NW,6.9,-,N/A,,Mostly Cloudy,320,2013-01-01 12:55:00
8:15 AM,25.0,20.8,84,30.12,5.0,NNW,6.9,-,N/A,,Overcast,330,2013-01-01 13:15:00
8:35 AM,24.8,20.8,85,30.11,5.0,NNW,8.1,-,N/A,,Overcast,340,2013-01-01 13:35:00
8:55 AM,25.2,21.0,84,30.10,5.0,North,9.2,-,N/A,,Overcast,350,2013-01-01 13:55:00
9:15 AM,25.2,20.8,84,30.07,5.0,North,9.2,-,N/A,,Overcast,360,2013-01-01 14:15:00
9:35 AM,24.8,20.5,84,30.09,5.0,North,6.9,-,N/A,,Haze,360,2013-01-01 14:35:00
9:55 AM,24.8,20.5,84,30.11,5.0,NNW,5.8,-,N/A,,Haze,340,2013-01-01 14:55:00
10:15 AM,25.5,21.0,83,30.14,5.0,NNW,6.9,-,N/A,,Overcast,340,2013-01-01 15:15:00
10:35 AM,25.5,20.5,81,30.14,5.0,NNW,6.9,-,N/A,,Haze,340,2013-01-01 15:35:00
10:55 AM,25.7,20.5,81,30.14,7.0,NNW,6.9,-,N/A,,Overcast,340,2013-01-01 15:55:00
11:15 AM,24.8,19.9,82,30.14,5.0,NNW,6.9,-,N/A,,Haze,340,2013-01-01 16:15:00
11:35 AM,25.3,20.3,81,30.14,7.0,NNW,5.8,-,N/A,,Clear,330,2013-01-01 16:35:00
11:55 AM,25.7,20.3,80,30.14,7.0,NW,5.8,-,N/A,,Clear,320,2013-01-01 16:55:00
12:15 PM,25.3,20.1,81,30.14,7.0,NW,6.9,-,N/A,,Clear,320,2013-01-01 17:15:00
12:35 PM,25.5,20.3,81,30.11,7.0,North,8.1,-,N/A,,Clear,350,2013-01-01 17:35:00
12:55 PM,25.5,20.1,80,30.11,7.0,NNW,9.2,-,N/A,,Clear,330,2013-01-01 17:55:00
1:15 PM,25.5,19.9,79,30.10,7.0,NNW,8.1,-,N/A,,Clear,340,2013-01-01 18:15:00
1:35 PM,25.5,19.9,79,30.11,7.0,NNW,6.9,-,N/A,,Clear,330,2013-01-01 18:35:00
1:55 PM,24.8,19.0,79,30.11,7.0,NNW,6.9,-,N/A,,Clear,330,2013-01-01 18:55:00
2:15 PM,25.0,19.0,78,30.12,10.0,NW,6.9,-,N/A,,Clear,320,2013-01-01 19:15:00
2:35 PM,24.8,18.5,77,30.11,7.0,NNW,6.9,-,N/A,,Clear,340,2013-01-01 19:35:00
2:55 PM,25.2,18.5,76,30.11,7.0,NNW,4.6,-,N/A,,Clear,330,2013-01-01 19:55:00
3:15 PM,24.8,18.5,77,30.11,10.0,NW,4.6,-,N/A,,Clear,320,2013-01-01 20:15:00
3:35 PM,24.8,18.3,76,30.11,10.0,NNW,8.1,-,N/A,,Clear,330,2013-01-01 20:35:00
3:55 PM,24.3,17.8,76,30.10,10.0,NNW,9.2,-,N/A,,Clear,340,2013-01-01 20:55:00
4:15 PM,23.7,17.2,76,30.11,10.0,NNW,5.8,-,N/A,,Clear,330,2013-01-01 21:15:00
4:35 PM,22.5,16.2,77,30.11,10.0,NW,3.5,-,N/A,,Clear,320,2013-01-01 21:35:00
4:55 PM,23.0,16.2,75,30.11,10.0,NW,4.6,-,N/A,,Clear,320,2013-01-01 21:55:00
5:15 PM,21.9,15.8,77,30.11,10.0,NW,4.6,-,N/A,,Clear,320,2013-01-01 22:15:00
5:35 PM,20.3,14.9,80,30.11,10.0,West,3.5,-,N/A,,Clear,280,2013-01-01 22:35:00
5:55 PM,19.4,15.3,84,30.12,7.0,Calm,Calm,-,N/A,,Clear,0,2013-01-01 22:55:00
6:15 PM,17.8,13.8,84,30.12,7.0,West,3.5,-,N/A,,Clear,260,2013-01-01 23:15:00
6:35 PM,16.0,12.6,86,30.12,7.0,WSW,3.5,-,N/A,,Clear,250,2013-01-01 23:35:00
6:55 PM,16.3,12.7,86,30.12,7.0,West,4.6,-,N/A,,Clear,270,2013-01-01 23:55:00
7:15 PM,16.0,12.6,86,30.12,5.0,West,3.5,-,N/A,,Clear,280,2013-01-02 00:15:00
7:35 PM,12.9,9.0,84,30.14,4.0,WNW,3.5,-,N/A,,Clear,290,2013-01-02 00:35:00
7:55 PM,16.0,12.6,86,30.14,7.0,WNW,5.8,-,N/A,,Clear,300,2013-01-02 00:55:00
8:15 PM,16.7,13.1,86,30.14,7.0,WNW,6.9,-,N/A,,Clear,300,2013-01-02 01:15:00
8:35 PM,16.7,13.1,86,30.15,10.0,WNW,8.1,-,N/A,,Clear,300,2013-01-02 01:35:00
8:55 PM,15.8,12.2,86,30.16,10.0,WNW,5.8,-,N/A,,Clear,300,2013-01-02 01:55:00
9:15 PM,15.3,11.5,85,30.15,10.0,WNW,4.6,-,N/A,,Clear,300,2013-01-02 02:15:00
9:35 PM,14.4,10.2,84,30.16,10.0,WNW,4.6,-,N/A,,Clear,290,2013-01-02 02:35:00
9:55 PM,14.0,10.2,85,30.16,10.0,WNW,4.6,-,N/A,,Clear,290,2013-01-02 02:55:00
10:15 PM,13.3,9.3,84,30.16,10.0,WNW,4.6,-,N/A,,Clear,290,2013-01-02 03:15:00
10:35 PM,13.6,9.5,84,30.15,10.0,WNW,5.8,-,N/A,,Mostly Cloudy,290,2013-01-02 03:35:00
10:55 PM,14.0,9.9,84,30.16,10.0,WNW,5.8,-,N/A,,Overcast,300,2013-01-02 03:55:00
11:15 PM,13.1,8.8,83,30.17,10.0,WNW,3.5,-,N/A,,Mostly Cloudy,290,2013-01-02 04:15:00
11:55 PM,12.6,8.4,83,30.17,10.0,WNW,3.5,-,N/A,,Clear,290,2013-01-02 04:55:00